Regional Weather Roundup
Issued by NWS

Home | Current Version | Previous Version | Text Only | Print | Product List | Glossary On
Versions: 1 2 3 4 5 6 7 8 9 10 11 12 13 14 15 16 17 18 19 20 21 22 23 24 25 26 27 28 29 30 31 32 33 34 35 36 37 38 39 40 41 42 43 44 45 46 47 48 49 50
000
ASUS44 KFWD 262115
RWRTX
NORTH TEXAS HOURLY WEATHER ROUNDUP
NATIONAL WEATHER SERVICE FORT WORTH TX
400 PM CDT SUN APR 26 2015

NOTE: "FAIR" INDICATES FEW OR NO CLOUDS BELOW 12,000 FEET WITH NO
SIGNIFICANT WEATHER AND/OR OBSTRUCTIONS TO VISIBILITY.

TXZ118-119-262200-
DALLAS/FORT WORTH METROPLEX

CITY           SKY/WX    TMP DP  RH WIND       PRES   REMARKS
DFW AIRPORT    PTSUNNY   79  63  57 S9        29.63F
DALLAS LOVE    PTSUNNY   85  57  38 S8        29.63F
FTW MEACHAM    CLOUDY    78  63  59 SE5       29.63F
DAL-EXECUTIVE  PTSUNNY   82  62  50 VRB5      29.63F
FTW-ALLIANCE   CLOUDY    77  64  64 CALM      29.64S THUNDER
FTW-NAS-JRB    CLOUDY    81  66  60 S9        29.64F THUNDER
FTW-SPINKS     MOSUNNY   81  55  41 SE9       29.64F
ARLINGTON      MOSUNNY   81  61  50 S7        29.64F
GRAND PRAIRIE  SUNNY     81  64  57 SE5       29.65
ADDISON        PTSUNNY   82  57  42 SE8       29.63
MESQUITE       SUNNY     82  66  57 SE7       29.63F
LANCASTER      MOSUNNY   83  65  54 SE6       29.64F
$$

TXZ091>094-102>105-117-120-121-131>134-262200-
NORTH CENTRAL TEXAS

CITY           SKY/WX    TMP DP  RH WIND       PRES   REMARKS
SHRMAN/DENISON CLOUDY    80  70  70 SE7       29.66S
GAINESVILLE    CLOUDY    76  65  67 SE5       29.67S
BOWIE          CLOUDY    75  60  58 SE3       29.65S
BRIDGEPORT     CLOUDY    78  67  69 SE10G16   29.65F
DECATUR        CLOUDY    77  65  65 S8        29.67R
DENTON         CLOUDY    78  68  71 SE5       29.64S
MCKINNEY       CLOUDY    80  70  71 SE8       29.64F
GREENVILLE     PTSUNNY   86  61  42 S8        29.65F
ROCKWALL       MOSUNNY   84  65  53 S9        29.63F
TERRELL        MOSUNNY   86  65  49 SE9       29.65F
WAXAHACHIE     MOSUNNY   82  70  66 CALM      29.65F
CLEBURNE       MOSUNNY   77  64  65 SE9       29.63F
GRANBURY         N/A     78  67  66 NE5       29.62F
$$

TXZ083>090-098>101-113>116-127>130-139>142-154-155-262200-
WESTERN NORTH TEXAS

CITY           SKY/WX    TMP DP  RH WIND       PRES   REMARKS
WICHITA FALLS  CLOUDY    75  60  59 E6        29.62S
WF-KICKAPOO    CLOUDY    78  61  56 SE10      29.62F
VERNON         CLOUDY    70  55  59 NE10      29.64F
ABILENE        PTSUNNY   80  61  52 E20       29.54F
ABILENE-DYESS  PTSUNNY   78  64  62 SE13      29.52F THUNDER
BRECKENRIDGE   CLOUDY    77  62  60 SE18G26   29.54F
GRAHAM         CLOUDY    78  61  54 E13       29.56F
MINERAL WELLS  TSTM      79  50  36 NE20G30   29.54F
STEPHENVILLE   PTSUNNY   75  63  66 SE14      29.60F
COMANCHE       CLOUDY    75  66  71 SE26G35   29.47F
BROWNWOOD      MOSUNNY   86  59  39 SE20      29.53S
COLEMAN        PTSUNNY   90  57  32 S9G21     29.53F
$$

TXZ143>147-156>162-174-175-262200-
CENTRAL TEXAS

CITY           SKY/WX    TMP DP  RH WIND       PRES   REMARKS
WACO           CLOUDY    78  69  73 E13       29.61F
WACO-TSTC      SUNNY     79  72  78 E8        29.62F
WACO-MCGREGOR  PTSUNNY   81  66  61 E9        29.62F
HILLSBORO      PTSUNNY   80  66  62 E7        29.63F
CORSICANA      PTSUNNY   81  67  62 E9        29.64F
MEXIA          CLOUDY    76  69  77 E5        29.64S
HEARNE         MOSUNNY   81  71  71 SE13      29.64F
CAMERON        MOSUNNY   85  68  57 S7        29.62F
TEMPLE         MOSUNNY   88  63  42 SE17G26   29.60F
KILLEEN        MOSUNNY   86  56  35 SE28G33   29.57F
KILLEEN-SKYLRK MOSUNNY   88  57  35 SE18G25   29.59F
FORT HOOD      MOSUNNY   87  57  35 SE21G28   29.58F
GATESVILLE     MOSUNNY   84  66  54 SE9G17    29.60F
HAMILTON       MOSUNNY   83  65  53 SE21G29   29.58F
$$

TXZ095>097-106>112-122>126-135>138-148>153-164>167-262200-
EAST TEXAS

CITY           SKY/WX    TMP DP  RH WIND       PRES   REMARKS
PARIS          CLOUDY    81  66  61 MISG      29.68F
SULPHUR SPRNGS CLOUDY    86  64  46 S8        29.68F
MOUNT PLEASANT PTSUNNY   84  64  51 S5        29.69F
GILMER         CLOUDY    85  62  46 SE3       29.67F
TYLER          PTSUNNY   85  63  47 CALM      29.67F
LONGVIEW       CLOUDY    85  62  46 SE3       29.67F
MARSHALL       MOSUNNY   89  64  43 CALM      29.70F HX  90
ATHENS         CLOUDY    81  64  57 CALM      29.64F
PALESTINE      PTSUNNY   83  68  59 N5        29.67F
JACKSONVILLE   PTSUNNY   83  66  55 E6        29.69F
HENDERSON      PTSUNNY   83  64  52 E3        29.69F
NACOGDOCHES    PTSUNNY   82  68  61 E9        29.66F
LUFKIN         CLOUDY    84  71  65 E10       29.63F
$$

SUPPLEMENTAL OBSERVATIONS (CENTRAL)

CITY           SKY/WX    TMP DP  RH WIND       PRES   REMARKS
LAKE TEXOMA      N/A     79  64  61 SE8         N/A
PAT MAYSE LAKE   N/A     79  66  65 SE8         N/A
GREENVILLE       N/A     84  64  51 S5          N/A
CEDAR HILL       N/A     81  63  54 SW2G12      N/A
ATHENS           N/A     84  63  48 E1          N/A
LAKE LIMESTONE   N/A     84  66  54 E6          N/A
MCGREGOR         N/A     82  68  61 E10         N/A
TEMPLE           N/A     88  64  45 SE18        N/A
$$

SUPPLEMENTAL OBSERVATIONS (WEST)

CITY           SKY/WX    TMP DP  RH WIND       PRES   REMARKS
MILLERS CREEK    N/A     72  61  68 E8          N/A
POSSUM KINGDOM   N/A     79  63  57 E13G21      N/A
GRANBURY         N/A     77  64  65 NE7G17      N/A
COMANCHE         N/A    N/A N/A N/A S17G38      N/A
HAMBY            N/A    N/A N/A N/A SE15G26     N/A
$$

SUPPLEMENTAL OBSERVATIONS (EAST)

CITY           SKY/WX    TMP DP  RH WIND       PRES   REMARKS
TEXARKANA        N/A     88  66  48 SW1         N/A  HX  90
LINDEN           N/A     88  54  31 SW5         N/A
CADDO LAKE       N/A     90  57  33 SW3         N/A
LUFKIN           N/A     82  70  65 MISG        N/A
N SABINE NF      N/A     84  72  65 MISG        N/A
$$

SUPPLEMENTAL OBSERVATIONS ARE A COLLECTION OF AUTOMATED INSTRUMENTS
THAT ARE MAINTAINED BY A VARIETY OF FEDERAL AND STATE AGENCIES.
CERTAIN ELEMENTS...SUCH AS HUMIDITY VALUES AND SUSTAINED WIND
SPEEDS...MAY BE APPROXIMATED.



USA.gov is the U.S. government's official web portal to all federal, state and local government web resources and services.